Location: Sternwarte-Kraichtal
(49.1689°N, 8.6996°E)
Time: 20:10:00
(UTC+02:00)

Vanguard 2 Rocket - Pass Details

Date: 03 June 2022
Orbit: 553 x 3323 km, 32.9° (Epoch: 02 July)

Event Time Altitude Azimuth Distance (km) Brightness Sun altitude
Rises 17:06:39 0° 270° (W) 7,306 12.4 38.9°
Reaches altitude 10° 17:12:29 10° 263° (W) 6,179 12.4 37.9°
Maximum altitude 17:27:46 33° 210° (SSW) 3,832 10.9 35.5°
Drops below altitude 10° 17:38:43 10° 152° (SSE) 4,397 10.3 33.7°
Sets 17:42:04 0° 143° (SE) 5,027 10.4 33.1°
